Temperature
20 20 20 21 18 17 18 19 19 19 19 19 19 19 18 17 18 18 18 17 17 17 17 17 17 17 17 17 17 17 17 17 18 17 18 18 18 18 17 17 17 17 17 17 17 17 17 17 17
21 21 21 20 17 17 18 19 19 19 19 19 19 19 18 17 18 18 18 17 17 17 17 17 17 17 17 17 17 17 17 17 17 17 17 17 17 17 17 17 17 17 17 17 17 17 17 17 17
21 21 21 17 17 18 19 19 19 20 20 20 19 18 18 18 18 18 18 17 17 17 17 17 17 17 17 17 17 17 17 17 17 17 17 17 17 17 17 17 17 17 17 17 17 17 17 17 17
21 21 20 17 19 19 19 19 19 20 20 20 19 18 18 18 18 18 18 18 17 17 17 17 17 17 17 17 17 17 17 17 17 17 17 17 17 17 17 17 17 17 17 17 17 17 17 17 17
21 21 17 18 19 19 19 20 20 19 19 19 18 17 18 18 18 18 18 18 18 17 17 17 17 17 17 17 17 17 17 17 17 17 17 17 17 17 17 17 17 17 16 16 16 16 16 16 16
21 18 17 18 19 20 20 20 20 19 19 19 18 17 18 18 18 18 18 18 18 17 17 17 17 17 17 17 17 17 17 17 17 17 17 17 17 17 17 17 16 16 16 16 16 16 16 16 16
20 17 18 18 19 20 20 21 20 19 19 19 19 17 18 18 18 18 18 18 17 17 17 17 17 17 17 17 17 17 17 17 17 17 17 17 16 16 16 16 16 16 16 16 16 16 16 16 16
21 17 18 18 19 20 21 21 21 20 19 20 19 18 18 18 18 18 18 17 17 17 17 17 17 17 17 17 17 17 17 16 16 16 16 16 16 16 16 16 16 16 16 16 16 16 16 16 16
21 17 18 18 19 20 21 21 21 21 20 19 19 20 20 19 18 18 18 17 17 17 17 17 17 17 17 17 17 16 16 16 16 16 16 16 16 16 16 16 16 16 16 16 16 16 16 16 16
20 17 19 19 19 20 21 21 21 20 19 19 19 19 19 19 18 18 18 18 18 18 17 17 17 17 17 17 17 16 16 16 16 16 16 16 16 16 16 16 16 16 16 16 16 16 16 16 16
19 18 19 20 21 21 21 21 21 20 19 20 20 20 19 19 18 18 18 18 18 18 17 17 17 17 17 17 17 16 16 16 16 16 16 16 16 16 16 16 16 16 16 15 15 16 15 15 15
19 19 20 21 21 21 21 21 20 21 21 22 22 21 20 19 19 19 19 18 18 18 18 17 17 17 17 17 17 16 16 16 16 16 16 16 16 16 16 16 15 15 15 15 15 15 15 15 15
20 20 21 21 22 21 21 21 21 21 22 22 21 20 20 19 19 19 19 18 18 18 18 17 17 17 17 17 17 16 16 16 16 16 16 16 16 16 15 15 15 15 15 15 15 15 15 15 15
20 20 21 21 21 21 21 20 20 21 21 21 20 20 20 19 19 19 18 18 18 18 18 18 17 17 17 17 17 16 16 16 16 16 16 16 15 15 15 15 15 15 15 15 15 15 15 15 15
21 20 20 20 21 21 21 19 19 21 21 20 20 20 20 19 19 19 19 19 19 18 18 18 17 17 17 17 17 16 16 16 16 16 16 15 15 15 15 15 15 15 15 15 15 14 14 14 14
20 19 19 19 20 20 20 19 19 20 20 19 20 20 19 19 19 19 19 19 19 18 18 18 17 17 17 17 17 16 16 16 16 16 15 15 15 15 15 15 15 15 14 14 14 14 14 14 14
18 18 19 19 20 19 19 18 19 20 19 19 19 19 19 19 19 19 19 19 19 18 18 18 17 17 17 17 16 16 16 16 16 16 15 15 15 15 15 15 15 14 14 14 14 14 14 14 14
18 18 18 19 19 19 18 18 18 19 18 18 19 19 19 19 20 19 19 19 18 18 18 18 17 17 17 17 16 16 16 16 16 16 15 15 15 15 15 15 14 14 14 14 14 14 14 14 14
19 18 18 19 19 19 18 18 18 18 18 18 18 19 19 20 20 19 19 19 18 18 18 18 17 17 17 17 17 16 16 16 16 15 15 15 15 15 14 14 14 14 14 14 14 14 14 13 13
19 18 18 18 19 19 18 17 17 17 17 18 18 18 19 20 20 19 19 19 19 18 18 18 18 17 17 17 17 16 16 16 16 15 15 15 15 15 14 14 14 14 14 14 14 13 13 13 13
18 18 18 18 18 18 18 17 17 17 17 18 18 19 19 20 20 20 19 19 19 18 18 18 18 17 17 17 17 16 16 16 15 15 15 15 15 14 14 14 14 14 14 13 13 13 13 13 13
18 19 19 19 18 16 18 16 17 17 16 16 17 18 19 19 19 19 19 19 19 19 18 18 18 17 17 17 17 17 16 16 16 15 15 15 15 14 14 14 14 14 13 13 13 13 13 13 13
19 19 19 18 17 16 16 16 16 16 17 16 16 18 19 19 19 19 19 19 19 19 18 18 18 17 17 17 17 17 16 16 15 15 15 15 14 14 14 14 14 13 13 13 13 13 13 13 13
19 18 17 15 15 16 17 16 16 15 17 17 17 18 18 19 19 19 19 19 19 19 18 18 18 17 17 17 17 16 16 16 16 15 15 15 14 14 14 14 14 13 13 13 13 13 13 12 12
18 17 16 16 15 15 16 16 16 17 17 16 17 18 19 19 20 20 19 19 19 18 18 18 18 17 17 17 17 16 16 16 16 15 15 15 14 14 14 14 13 13 13 13 13 13 13 12 12
17 17 16 16 15 15 16 16 16 17 17 18 18 18 19 19 20 20 20 19 19 19 18 18 17 17 17 17 17 16 16 16 16 15 15 15 15 14 14 14 13 13 13 13 13 12 12 12 12
17 16 16 15 15 15 15 15 16 17 17 17 17 18 18 19 19 20 20 19 19 19 18 18 18 17 17 17 17 16 16 16 16 15 15 15 14 14 14 13 13 13 13 13 12 12 12 12 12
18 15 14 15 15 15 16 16 16 17 17 16 16 17 18 19 19 19 19 19 19 19 18 18 17 17 17 17 16 16 16 16 15 15 15 15 14 14 14 13 13 13 13 12 12 12 12 12 12
17 16 15 13 14 14 15 16 16 16 17 16 16 17 18 19 19 19 19 19 19 18 18 18 17 17 17 16 16 16 16 15 15 15 15 14 14 14 14 13 13 13 12 12 12 12 12 12 11
17 16 14 15 14 13 14 15 17 16 16 16 16 17 18 18 19 19 19 19 18 18 18 17 17 17 17 16 16 16 16 15 15 15 15 14 14 14 13 13 13 13 12 12 12 12 12 11 11
Wind_Speed
2 4 3 4 6 6 3 2 0 1 3 2 4 6 7 4 2 3 1 2 2 2 2 4 7 8 9 10 11 11 11 12 11 12 12 12 12 12 12 12 12 12 13 13 12 11 11 12 11
2 2 4 5 5 4 1 1 1 1 4 4 5 5 5 4 2 3 1 2 3 3 3 4 7 8 9 10 10 11 11 11 11 11 12 12 12 11 12 12 12 13 13 13 13 12 12 12 12
2 3 4 5 4 4 3 2 3 3 4 2 4 4 4 3 2 3 3 4 4 3 3 4 7 8 8 9 9 10 10 10 11 11 12 12 12 11 12 12 12 13 13 13 13 13 13 13 12
3 5 5 6 4 1 3 3 4 5 3 4 4 5 3 1 3 4 5 6 5 3 3 4 6 7 8 8 9 10 10 10 11 11 11 12 12 12 12 12 12 12 12 12 13 13 13 13 13
4 4 6 4 2 1 1 3 4 4 3 3 4 5 2 3 4 6 6 6 5 3 3 3 6 7 7 8 9 9 10 10 10 11 11 11 11 11 11 11 12 12 12 13 13 13 13 13 14
4 5 5 3 1 1 0 2 4 4 4 3 4 4 1 1 5 6 6 5 4 4 3 3 4 6 6 7 8 9 9 10 10 11 11 11 11 11 11 11 12 12 12 12 13 13 13 14 14
4 5 4 3 2 1 1 3 5 5 4 3 5 5 1 1 3 6 6 5 4 4 3 3 3 4 5 6 7 8 8 9 9 10 10 11 11 11 11 11 11 12 12 12 12 13 13 14 14
5 5 4 2 3 1 2 3 3 5 4 4 4 6 5 5 5 7 6 5 4 3 2 2 3 4 5 5 6 7 8 8 8 8 9 10 11 11 11 11 11 11 11 11 12 13 13 14 14
4 5 3 4 5 3 2 3 2 3 5 3 2 4 4 8 9 8 5 3 2 2 1 1 2 3 4 4 5 6 7 8 8 7 8 9 9 10 9 10 11 12 12 12 12 13 13 13 13
5 4 4 4 5 4 3 4 5 4 4 2 2 3 6 9 10 8 6 5 4 3 2 1 1 2 3 3 4 5 5 6 7 6 7 7 8 8 8 10 11 12 12 12 12 12 12 11 10
4 4 2 1 3 4 3 3 3 7 3 6 7 8 9 8 8 8 6 5 5 4 3 3 2 2 2 2 3 3 4 5 5 6 6 7 7 7 8 8 9 9 10 9 10 10 10 9 9
3 1 2 2 2 3 4 4 3 5 6 6 8 12 11 10 10 9 8 6 5 4 4 3 3 3 2 2 3 3 3 3 3 4 5 5 4 4 5 5 6 7 6 6 7 7 8 8 9
2 0 0 1 2 2 4 3 3 3 2 5 8 10 11 10 8 7 6 6 5 5 5 4 4 4 3 2 2 3 2 2 2 3 4 4 3 3 4 4 5 5 6 5 5 5 6 6 7
2 1 2 2 1 1 3 1 1 3 3 7 9 9 9 9 8 6 6 6 5 6 6 5 5 4 4 3 2 2 2 2 3 3 3 4 4 3 3 3 4 4 5 5 5 5 5 4 5
2 3 4 2 0 1 4 1 3 3 6 7 7 7 7 7 7 8 8 7 7 6 5 5 5 4 4 3 3 3 3 3 2 2 3 4 4 4 4 3 3 3 5 5 5 5 5 5 5
4 3 1 4 1 2 5 4 6 3 7 7 6 6 6 6 7 7 7 7 7 6 5 5 6 5 4 3 3 2 3 3 2 3 3 3 4 5 4 3 2 3 5 4 4 4 4 4 4
4 1 2 4 1 2 4 5 5 3 7 7 7 6 6 6 5 5 6 7 7 7 6 6 5 6 5 4 3 3 3 3 3 3 3 3 4 5 5 3 2 4 4 3 4 3 3 4 4
4 3 3 4 2 3 3 6 5 3 6 7 7 6 7 7 8 7 6 6 5 6 6 6 5 5 5 3 3 2 2 2 2 2 3 4 4 5 5 3 3 4 3 3 4 4 4 3 3
4 4 3 4 2 3 5 7 7 5 5 6 7 7 8 9 7 5 5 5 5 5 6 6 6 5 5 3 3 2 1 1 0 1 3 4 4 5 5 3 3 3 3 3 3 3 4 3 2
3 3 3 4 1 3 4 6 6 5 7 8 9 10 10 8 5 5 5 6 7 7 7 6 7 7 6 4 3 3 2 1 1 1 2 3 4 5 5 4 3 3 3 3 3 3 2 2 2
3 5 5 4 2 2 1 6 5 5 3 5 6 7 8 10 9 7 7 7 7 7 8 8 8 7 6 6 4 3 3 2 2 1 0 1 3 4 4 4 4 3 3 3 2 3 3 2 1
5 6 5 3 1 3 1 4 7 5 4 5 7 6 8 9 8 8 8 8 8 9 7 7 7 7 6 7 6 6 4 3 3 2 1 1 2 3 4 4 4 3 3 3 2 2 2 3 2
6 1 2 2 3 0 1 2 8 3 5 7 7 7 8 8 9 9 10 10 9 8 7 7 7 6 6 6 7 7 5 3 2 2 2 1 1 2 3 4 4 3 2 3 3 2 2 2 2
4 5 5 5 4 1 4 4 7 5 7 7 6 7 7 7 8 8 7 7 6 6 5 6 7 6 6 7 7 7 7 5 4 3 3 2 1 1 2 3 3 3 3 3 3 3 3 2 2
5 5 3 4 3 5 3 4 8 7 6 7 7 7 6 6 7 7 7 7 7 7 7 6 7 7 6 7 7 8 8 8 7 6 5 4 2 2 3 3 3 3 3 3 3 3 2 2 3
4 8 7 5 5 5 2 6 7 6 5 4 4 4 3 4 6 7 8 8 8 8 8 7 8 7 7 7 7 6 6 6 5 5 5 5 4 4 4 4 4 3 3 3 3 2 2 2 2
5 4 6 6 3 2 5 7 8 3 3 2 1 1 2 4 5 6 6 7 7 8 8 9 9 7 7 7 6 6 6 6 6 5 5 4 4 4 4 4 4 3 3 3 3 2 2 3 2
5 8 5 5 4 4 5 5 5 5 5 4 3 3 3 2 3 4 4 5 6 6 6 6 7 7 6 6 6 6 6 6 5 5 5 5 5 4 4 4 4 4 3 3 3 2 2 3 2
3 4 4 4 4 5 4 7 5 7 5 4 4 4 3 3 3 3 4 4 4 4 5 5 5 5 5 6 6 5 5 5 5 5 6 5 4 5 5 5 5 4 4 4 4 3 3 3 2
4 6 7 5 4 4 4 7 5 5 4 4 4 3 2 2 2 2 2 3 4 4 5 6 6 6 6 6 6 6 5 5 5 5 5 5 5 5 5 5 5 5 5 4 5 4 4 4 4
Wind_Direction
54 85 78 58 56 56 53 342 330 69 65 44 68 86 98 93 108 139 226 142 120 83 71 81 78 76 74 76 80 82 80 78 77 77 77 77 78 77 76 75 72 70 73 77 78 77 75 74 73
101 87 57 60 79 79 15 301 126 132 142 140 81 80 78 70 77 113 141 160 119 100 85 89 87 83 81 78 79 81 80 79 78 78 78 77 77 77 76 76 75 72 72 74 74 75 73 72 71
94 58 77 70 89 138 158 194 149 94 114 111 80 65 88 108 125 158 182 143 107 91 89 100 95 89 84 82 81 82 82 81 81 79 77 76 76 78 77 76 74 73 73 74 74 74 73 73 73
81 47 56 70 85 184 174 176 147 122 84 59 95 77 66 64 156 158 135 129 115 95 95 107 101 94 90 88 85 84 85 83 81 81 78 76 75 75 76 76 73 72 73 75 75 74 74 74 72
61 74 65 64 46 342 191 166 144 119 100 67 92 100 62 4 104 120 128 131 126 109 96 102 103 98 95 93 89 86 86 84 82 81 80 78 76 74 75 74 72 70 73 74 73 72 73 72 70
56 66 84 100 29 352 348 145 122 100 100 99 103 107 82 55 123 135 132 128 123 116 93 77 102 101 98 96 95 91 88 85 82 79 78 77 75 72 71 70 69 70 71 72 71 70 71 71 68
97 90 114 132 109 45 168 132 131 129 128 152 134 112 130 204 157 133 118 112 107 103 90 61 61 80 89 89 94 94 91 87 83 79 77 74 72 70 67 66 67 71 73 73 71 70 72 70 68
115 99 92 116 139 207 163 117 126 131 136 129 126 140 185 201 145 115 100 96 97 91 83 64 55 67 67 71 86 90 87 82 77 72 72 68 64 62 62 62 65 69 73 72 69 69 68 68 67
86 80 133 185 171 196 161 118 99 99 109 108 130 166 181 140 127 117 106 99 115 133 97 81 77 79 74 73 77 75 75 72 67 62 65 60 50 48 49 55 65 69 71 71 69 68 68 65 62
84 120 194 199 178 169 155 141 146 107 104 105 86 87 117 131 142 145 153 162 173 188 188 154 123 102 90 91 76 67 67 65 63 60 58 54 52 49 50 54 63 65 67 67 65 65 64 60 55
111 157 195 199 178 152 136 138 139 130 168 197 179 162 144 147 155 162 171 172 184 189 174 168 161 131 110 95 87 77 71 69 66 63 63 63 59 52 50 49 51 54 60 60 59 56 56 60 61
113 200 178 186 158 140 147 142 139 168 208 200 173 157 153 159 170 176 180 182 179 169 179 174 157 141 131 116 101 97 87 78 75 72 71 73 64 52 50 52 49 52 58 60 59 60 56 59 62
119 287 330 132 99 133 131 149 169 219 214 127 131 145 160 170 179 182 181 176 168 176 186 179 164 159 151 129 125 110 105 104 104 92 82 89 84 69 58 57 57 55 58 63 63 63 59 57 57
165 122 43 20 38 106 138 156 133 241 141 130 144 164 175 179 182 176 177 182 182 186 188 179 168 168 151 146 135 126 128 126 109 102 103 105 102 94 79 69 61 57 62 69 73 71 69 61 61
89 65 11 341 28 176 117 355 248 220 139 147 164 176 187 194 185 188 186 184 184 187 184 174 168 159 156 157 154 137 143 134 121 118 116 118 115 108 98 87 69 59 73 81 78 68 70 64 59
62 62 349 297 190 156 132 240 263 179 150 174 185 189 196 210 202 201 192 184 179 176 174 175 169 159 163 159 148 134 134 127 125 127 126 128 129 119 107 97 82 76 81 83 82 67 69 61 57
41 118 248 295 228 147 158 233 267 177 166 192 198 200 205 215 218 213 200 190 180 178 173 168 160 160 164 157 134 124 111 108 117 124 127 131 132 126 116 105 96 94 84 77 85 69 75 77 65
208 203 228 242 248 150 193 248 267 210 187 207 211 209 212 217 221 213 201 187 177 176 173 166 161 159 150 136 112 92 80 76 85 106 125 129 131 128 122 110 101 97 89 73 76 81 66 76 80
172 180 229 255 236 178 224 252 261 230 209 221 224 219 220 225 224 206 192 176 166 170 171 172 169 167 151 138 139 136 147 150 115 104 127 135 138 135 127 118 111 104 105 104 98 95 84 66 67
169 200 250 283 262 181 244 270 266 230 217 217 218 219 219 219 211 199 189 179 181 186 185 184 183 178 173 166 157 147 142 141 159 107 99 134 142 145 144 131 133 126 116 103 100 104 101 72 52
218 202 224 236 350 32 358 308 287 269 238 236 227 220 216 212 209 202 193 192 188 193 195 194 194 188 181 163 129 102 82 65 65 69 122 125 141 142 143 141 134 137 135 142 141 132 128 123 46
239 231 210 194 147 279 137 276 285 272 274 249 238 227 222 219 209 200 194 193 197 202 198 194 190 187 182 165 159 158 163 177 196 184 175 143 126 134 142 140 139 144 143 151 161 144 140 137 136
212 202 160 162 166 272 348 209 282 296 268 259 244 234 229 216 205 203 201 199 200 197 193 192 183 184 181 177 175 172 175 183 162 141 143 146 127 124 139 140 138 145 149 161 156 144 144 142 150
148 78 62 55 80 277 236 192 275 250 235 257 249 238 230 214 205 206 203 193 194 188 186 183 180 187 184 183 182 182 181 174 162 167 170 179 185 171 150 145 143 153 159 170 173 164 155 155 146
102 95 36 360 5 255 249 205 250 256 243 241 250 246 228 204 197 198 195 192 192 187 188 186 184 191 186 186 191 192 187 181 185 185 185 182 186 201 205 172 164 168 179 175 167 161 164 166 160
166 145 161 198 223 271 289 235 255 265 274 259 246 236 212 205 200 201 199 195 196 193 189 186 189 194 187 188 196 193 186 186 192 190 185 189 196 202 194 180 176 177 176 173 165 162 175 164 169
143 172 168 143 168 247 275 285 300 294 325 329 311 263 226 220 205 202 199 195 193 190 191 188 188 192 191 191 188 187 185 185 189 187 184 190 197 194 182 179 179 180 175 170 164 168 179 167 178
146 144 109 133 169 240 278 273 254 278 286 302 298 274 261 235 203 196 196 196 192 189 187 180 182 190 190 186 187 190 191 191 186 178 188 193 195 189 175 181 183 183 179 169 163 171 179 164 178
115 122 130 138 163 171 247 267 231 231 246 253 263 264 256 237 218 198 195 195 185 173 171 175 179 180 183 187 187 184 186 185 178 187 197 195 190 187 185 186 183 184 183 175 168 183 178 174 181
164 166 152 163 218 187 201 262 276 240 242 231 246 258 259 235 207 188 179 170 172 176 178 182 184 186 193 189 182 184 181 174 179 194 198 192 193 193 189 182 182 188 185 178 177 187 185 183 189
Height
1494 1494 1494 1496 1500 1513 1517 1513 1510 1509 1509 1510 1509 1510 1512 1515 1519 1524 1520 1518 1518 1517 1517 1517 1516 1516 1515 1514 1514 1514 1514 1514 1514 1514 1514 1514 1514 1514 1513 1512 1511 1510 1508 1509 1511 1512 1513 1513 1513
1495 1495 1497 1497 1509 1523 1520 1512 1511 1509 1509 1510 1511 1512 1513 1515 1517 1518 1518 1519 1519 1519 1518 1518 1518 1518 1517 1517 1516 1516 1517 1516 1516 1516 1516 1516 1516 1515 1515 1514 1514 1513 1513 1513 1514 1514 1515 1515 1515
1496 1496 1498 1501 1513 1521 1517 1510 1509 1509 1510 1510 1512 1513 1515 1517 1518 1518 1519 1519 1520 1520 1520 1520 1520 1519 1519 1519 1519 1519 1519 1518 1518 1518 1518 1518 1518 1517 1517 1517 1517 1516 1516 1516 1516 1516 1517 1517 1516
1496 1498 1499 1508 1514 1513 1510 1509 1508 1509 1511 1511 1512 1515 1517 1518 1519 1520 1520 1521 1521 1521 1521 1521 1521 1521 1521 1521 1521 1521 1521 1520 1520 1520 1520 1520 1520 1519 1519 1519 1519 1518 1518 1518 1518 1518 1518 1518 1518
1497 1498 1506 1515 1513 1510 1508 1508 1509 1510 1511 1512 1513 1516 1518 1519 1520 1521 1521 1522 1522 1523 1523 1523 1523 1523 1523 1523 1523 1523 1523 1522 1522 1522 1522 1522 1522 1521 1521 1521 1521 1521 1521 1520 1520 1520 1520 1520 1520
1498 1500 1515 1520 1515 1510 1508 1508 1509 1511 1512 1513 1514 1516 1519 1520 1521 1522 1522 1523 1524 1524 1524 1524 1525 1525 1525 1525 1525 1525 1525 1525 1524 1524 1524 1524 1524 1523 1523 1523 1523 1523 1523 1522 1522 1522 1522 1522 1522
1500 1506 1515 1516 1516 1512 1509 1509 1510 1511 1513 1514 1515 1517 1519 1520 1522 1523 1524 1524 1525 1526 1526 1526 1526 1526 1526 1527 1527 1526 1526 1527 1527 1526 1526 1526 1526 1525 1525 1525 1525 1525 1525 1525 1524 1524 1524 1524 1524
1500 1506 1514 1516 1516 1513 1509 1509 1510 1511 1513 1515 1516 1517 1518 1520 1522 1523 1524 1525 1526 1527 1527 1527 1527 1528 1528 1528 1528 1528 1528 1528 1528 1528 1528 1528 1528 1528 1527 1527 1527 1527 1526 1526 1526 1526 1526 1525 1525
1501 1511 1518 1515 1514 1511 1509 1510 1511 1512 1513 1515 1516 1517 1518 1520 1521 1523 1525 1526 1527 1528 1528 1528 1529 1529 1529 1529 1530 1530 1530 1530 1530 1530 1530 1530 1529 1529 1529 1529 1529 1528 1528 1528 1528 1528 1527 1527 1527
1502 1513 1511 1508 1507 1508 1508 1509 1511 1513 1514 1515 1516 1517 1518 1520 1521 1523 1524 1526 1527 1528 1529 1529 1530 1530 1531 1531 1531 1531 1531 1531 1531 1531 1531 1531 1531 1531 1531 1531 1531 1530 1530 1530 1530 1529 1529 1529 1528
1502 1508 1506 1505 1505 1506 1508 1509 1510 1512 1515 1514 1514 1516 1518 1520 1521 1523 1525 1526 1527 1528 1529 1530 1531 1532 1532 1532 1532 1533 1533 1533 1533 1533 1533 1533 1533 1532 1532 1532 1532 1532 1532 1531 1531 1531 1531 1530 1530
1504 1504 1505 1505 1505 1506 1508 1509 1511 1511 1512 1512 1513 1515 1517 1519 1521 1523 1524 1526 1527 1529 1530 1531 1532 1532 1533 1533 1534 1534 1534 1534 1534 1534 1534 1534 1534 1534 1534 1534 1534 1533 1533 1533 1533 1532 1532 1532 1531
1504 1505 1504 1505 1505 1506 1508 1509 1510 1511 1511 1512 1514 1515 1517 1519 1521 1523 1525 1526 1528 1529 1530 1531 1532 1533 1533 1534 1534 1534 1535 1535 1535 1535 1535 1535 1535 1535 1535 1535 1535 1535 1534 1534 1534 1534 1533 1533 1533
1504 1505 1505 1506 1506 1507 1508 1510 1510 1510 1511 1512 1513 1515 1517 1519 1521 1523 1524 1526 1527 1529 1530 1531 1532 1533 1534 1534 1535 1535 1536 1536 1536 1536 1536 1536 1536 1536 1536 1536 1536 1536 1536 1535 1535 1535 1534 1534 1534
1504 1506 1507 1507 1507 1507 1509 1513 1510 1509 1510 1512 1513 1515 1517 1519 1520 1522 1523 1525 1526 1528 1529 1531 1532 1533 1534 1535 1535 1535 1536 1536 1537 1537 1537 1537 1537 1537 1537 1537 1537 1537 1536 1536 1536 1536 1535 1535 1535
1506 1511 1516 1509 1507 1507 1513 1519 1509 1509 1510 1511 1512 1514 1516 1518 1519 1521 1523 1524 1526 1527 1529 1530 1531 1533 1534 1534 1535 1535 1536 1536 1537 1537 1538 1538 1538 1538 1538 1538 1537 1537 1537 1537 1537 1536 1536 1536 1536
1514 1520 1518 1513 1507 1508 1512 1515 1508 1508 1509 1510 1511 1512 1514 1516 1517 1519 1521 1523 1524 1526 1528 1529 1530 1532 1533 1534 1535 1535 1536 1536 1537 1537 1538 1538 1538 1538 1538 1538 1538 1538 1538 1537 1537 1537 1536 1536 1536
1520 1519 1518 1515 1509 1509 1513 1512 1507 1507 1508 1508 1509 1511 1512 1513 1515 1517 1519 1521 1523 1525 1527 1528 1529 1531 1532 1533 1534 1535 1535 1536 1536 1537 1537 1538 1538 1538 1538 1538 1538 1538 1538 1538 1538 1537 1537 1536 1536
1511 1515 1516 1513 1508 1510 1512 1511 1507 1506 1507 1507 1507 1508 1509 1510 1513 1515 1517 1519 1521 1523 1525 1527 1528 1529 1530 1532 1533 1533 1534 1535 1536 1536 1537 1537 1538 1538 1538 1538 1538 1538 1538 1538 1538 1537 1537 1537 1536
1510 1514 1515 1511 1507 1509 1512 1510 1505 1504 1503 1503 1504 1505 1506 1508 1510 1512 1514 1516 1519 1521 1523 1525 1526 1527 1529 1530 1531 1532 1533 1534 1535 1536 1536 1537 1537 1537 1537 1538 1538 1538 1538 1538 1538 1537 1537 1537 1537
1511 1514 1513 1513 1509 1509 1512 1513 1507 1501 1500 1500 1501 1501 1503 1504 1506 1508 1511 1513 1516 1518 1520 1522 1524 1526 1527 1529 1530 1531 1532 1533 1534 1534 1535 1536 1536 1537 1537 1537 1537 1537 1537 1537 1537 1537 1537 1537 1537
1513 1505 1506 1509 1516 1522 1517 1528 1510 1503 1501 1498 1498 1498 1499 1500 1503 1505 1508 1510 1513 1515 1518 1520 1522 1524 1526 1527 1528 1529 1530 1530 1531 1533 1534 1535 1535 1536 1536 1536 1536 1537 1537 1537 1537 1537 1537 1537 1536
1504 1501 1505 1509 1515 1522 1520 1526 1516 1504 1502 1497 1494 1494 1495 1496 1499 1501 1504 1506 1510 1513 1515 1517 1520 1521 1523 1525 1526 1527 1528 1529 1530 1531 1532 1533 1534 1534 1535 1535 1535 1535 1535 1536 1536 1536 1536 1536 1536
1499 1504 1510 1516 1522 1530 1522 1526 1519 1506 1498 1493 1491 1491 1491 1493 1495 1498 1501 1504 1507 1510 1512 1514 1517 1519 1520 1522 1523 1525 1526 1527 1528 1529 1530 1531 1532 1532 1533 1533 1534 1534 1534 1534 1534 1535 1535 1535 1535
1501 1514 1529 1531 1537 1534 1520 1521 1515 1495 1491 1490 1488 1488 1488 1490 1492 1495 1497 1500 1503 1506 1508 1511 1513 1515 1517 1519 1521 1522 1523 1525 1526 1527 1528 1528 1529 1530 1531 1531 1532 1532 1533 1533 1533 1533 1533 1533 1533
1503 1510 1528 1537 1539 1532 1520 1521 1505 1490 1488 1486 1486 1486 1487 1488 1490 1492 1494 1497 1500 1502 1505 1507 1510 1512 1514 1516 1517 1519 1521 1522 1523 1524 1525 1526 1527 1528 1529 1529 1530 1530 1531 1531 1531 1531 1531 1531 1531
1504 1509 1509 1523 1527 1531 1525 1514 1499 1487 1486 1485 1485 1485 1485 1487 1488 1490 1492 1495 1497 1499 1502 1504 1506 1509 1511 1513 1514 1516 1518 1519 1520 1522 1523 1524 1525 1525 1526 1527 1527 1528 1529 1529 1529 1529 1529 1530 1530
1496 1504 1515 1522 1531 1535 1525 1517 1508 1494 1489 1487 1486 1485 1484 1485 1486 1488 1490 1492 1495 1497 1499 1501 1503 1505 1507 1509 1511 1513 1514 1516 1517 1518 1520 1521 1522 1523 1523 1524 1525 1525 1526 1526 1527 1527 1527 1527 1527
1500 1505 1510 1519 1521 1531 1531 1518 1493 1490 1487 1487 1485 1484 1484 1485 1485 1487 1488 1490 1492 1494 1496 1498 1500 1502 1504 1506 1508 1510 1511 1513 1514 1515 1516 1517 1519 1520 1521 1521 1522 1523 1523 1524 1524 1524 1525 1525 1525
1493 1498 1507 1517 1520 1523 1525 1514 1486 1485 1484 1484 1484 1484 1484 1484 1485 1486 1487 1489 1490 1491 1493 1495 1497 1499 1501 1503 1504 1506 1508 1509 1510 1511 1513 1514 1515 1516 1517 1518 1519 1520 1520 1521 1521 1521 1522 1522 1522